Regional Weather Roundup
Issued by NWS

Home | Current Version | Previous Version | Graphics & Text | Print | Product List | Glossary Off
Versions: 1 2 3 4 5 6 7 8 9 10 11 12 13 14 15 16 17 18 19 20 21 22 23 24 25 26 27 28 29 30 31 32 33 34 35 36 37 38 39 40 41 42 43 44 45 46 47 48 49 50

000
ASUS43 KDTX 231910
RWRMI
MICHIGAN HOURLY REGIONAL WEATHER ROUNDUP
NATIONAL WEATHER SERVICE DETROIT/PONTIAC MI
200 PM EST TUE JAN 23 2018

NOTE: "FAIR" INDICATES FEW OR NO CLOUDS BELOW 12,000 FEET WITH NO
SIGNIFICANT WEATHER AND/OR OBSTRUCTION TO VISIBILITY.

MIZ047>049-052>055-059>063-066>070-074>076-081>083-232000-
SOUTHEAST LOWER MICHIGAN

CITY           SKY/WX    TMP DP  RH WIND       PRES   REMARKS
ADRIAN         CLOUDY    34  26  72 W20G32    29.67R WCI  23
ALMA           CLOUDY    31  29  92 NW14G24   29.64R WCI  21
ANN ARBOR      CLOUDY    34  28  79 SW21G33   29.62R WCI  22
BAD AXE        LGT SNOW  28  26  93 N13       29.56R WCI  17
CARO           LGT SNOW  31  29  93 N14G23    29.55R WCI  21
DETROIT CITY   CLOUDY    38  31  76 W10G24    29.59R WCI  31
DETROIT        CLOUDY    37  29  72 W17G31    29.61R WCI  27
FLINT          FLURRIES  34  30  85 W15G23    29.59R WCI  24
GROSSE ILE     CLOUDY    38  30  74 W17G24    29.61R WCI  28
HILLSDALE      CLOUDY    32  27  80 W20G35    29.65R WCI  20
HOWELL         LGT SNOW  32  31  95 W20G26    29.60R WCI  20

CITY           SKY/WX    TMP DP  RH WIND       PRES   REMARKS
JACKSON        CLOUDY    33  25  72 W16G30    29.64R WCI  23
LAMBERTVILLE   CLOUDY    36  29  75 W17G26    29.66R WCI  26
LANSING        LGT SNOW  31  29  92 W13       29.64R FOG     WCI  21
LAPEER         FLURRIES  35  32  87 W13       29.55R WCI  27
MONROE         CLOUDY    37  28  71 W17G26    29.63R WCI  27
MT. CLEMENS    CLOUDY    39  34  83 W18G32    29.55R WCI  29
PONTIAC        CLOUDY    34  30  85 W16G29    29.56R WCI  24
PORT HOPE        N/A     27  23  85 NW16G25   29.54R WCI  15
PORT HURON     CLOUDY    39  32  75 SW7       29.55S WCI  34
TRI CITIES     LGT SNOW  31  30  96 NW15      29.61R FOG     WCI  20
MIDLAND        CLOUDY    31  28  88 NW12G20   29.61R WCI  22
TROY           CLOUDY    38  31  76 W15G23    29.60R WCI  29
SAGINAW HB     SNOW      32  30  93 NW12      29.59R VSB<1/4 WCI  23
$$
MIZ043>046-050>051-056>058-064>065-071>073-077>080-232000-
SOUTHWEST LOWER MICHIGAN

CITY           SKY/WX    TMP DP  RH WIND       PRES   REMARKS
BATTLE CREEK   LGT SNOW  32  28  85 NW24G32   29.69R FOG     WCI  19
BENTON HARBOR  CLOUDY    31  26  82 NW12G21   29.80R WCI  22
BIG RAPIDS     CLOUDY    26  22  85 NW9G21    29.67R WCI  16
COLDWATER      CLOUDY    33  28  81 W20G33    29.71R WCI  21
FREMONT        CLOUDY    28  21  77 NW20G28   29.72R WCI  14
HOLLAND        CLOUDY    30  25  81 NW14G29   29.76R WCI  19
GRAND RAPIDS   CLOUDY    31  24  75 W17G26    29.70R WCI  19
IONIA          CLOUDY    31  28  88 W20       29.66R WCI  18
KALAMAZOO      CLOUDY    32  26  78 NW20G30   29.73R WCI  20
LUDINGTON      CLOUDY    28  24  85 N17G24    29.75R WCI  15
MARSHALL       CLOUDY    32  28  84 W20       29.68R WCI  20
MOUNT PLEASANT CLOUDY    30  25  80 NW13G21   29.63R WCI  20
MUSKEGON       CLOUDY    30  23  75 NW17G28   29.75R WCI  18
SOUTH HAVEN    CLOUDY    32  27  82 NW14G22   29.78R HAZE    WCI  22
$$
MIZ016>042-232000-
NORTHERN LOWER MICHIGAN

CITY           SKY/WX    TMP DP  RH WIND       PRES   REMARKS
ALPENA         LGT SNOW  20  16  84 NW16G24   29.61R FOG     WCI   6
BEAVER ISLAND  PTSUNNY   23  18  80 N3        29.74R
BELLAIRE       LGT SNOW  22  19  87 NW5       29.71R WCI  16
CADILLAC       CLOUDY    22  18  83 NW15G22   29.65R WCI   9
CHARLEVOIX     CLOUDY    22  18  86 NW6       29.74R WCI  14
FRANKFORT      CLOUDY    27  23  82 N9G20     29.75R WCI  18
GAYLORD        LGT SNOW  18  16  92 NW7G22    29.62R FOG     WCI   9
GRAYLING       CLOUDY    22  16  79 NW14G20   29.63R HAZE    WCI   9
HARBOR SPRINGS CLOUDY    20  15  80 NW3       29.69R
HOUGHTON LAKE  FLURRIES  22  17  81 NW16G24   29.62R WCI   8
MANISTEE       FLURRIES  27  23  85 NW15G23   29.74R WCI  15
OSCODA         CLOUDY    24  20  84 NW12G22   29.58R HAZE    WCI  13
PELLSTON       CLOUDY    20  14  77 NW16      29.69R WCI   6
ROGERS CITY    LGT SNOW  19  16  87 NW9       29.64R WCI   8
TRAVERSE CITY  FLURRIES  25  19  78 NW17G28   29.72R WCI  12
$$
MIZ007>008-015-232000-
EASTERN UPPER MICHIGAN

CITY           SKY/WX    TMP DP  RH WIND       PRES   REMARKS
KINROSS        FAIR      18  11  74 N21G29    29.68R WCI   1
MACKINAC ISLAN FAIR      21  15  78 N13G22    29.68R WCI   8
NEWBERRY       CLOUDY    18  17  94 N16G24    29.73R FOG     WCI   3
S. S. MARIE    FAIR      19   7  59 NW12      29.68R WCI   7
MUNISING         N/A     22  20  92 N25G31    29.84R WCI   5
$$
MIZ004>006-011>014-085-232000-
CENTRAL UPPER MICHIGAN

CITY           SKY/WX    TMP DP  RH WIND       PRES   REMARKS
ESCANABA       FLURRIES  24  19  81 N15       29.84R WCI  11
MENOMINEE      CLOUDY    27  21  78 N17G23    29.85R WCI  14
SAWYER-GWINN   LGT SNOW  19  16  86 N25G33    29.84R WCI   2
$$
MIZ001>003-009>011-084-232000-
WESTERN UPPER MICHIGAN

CITY           SKY/WX    TMP DP  RH WIND       PRES   REMARKS
IRON MOUNTAIN  CLOUDY    23  17  78 N14       29.85R WCI  11
HOUGHTON       CLOUDY    18  11  74 N15       29.93R WCI   4
COPPER HARBOR    N/A     19  13  77 NE17G26   29.95S WCI   4
IRONWOOD       FLURRIES  20  17  88 N8        29.98R WCI  10
$$

ABBREVIATIONS USED IN REMARKS
   TC - TEMPERATURE IN CELSIUS
  WCI - WIND CHILL INDEX
   HX - HEAT INDEX
  VSB - VISIBILITY




USA.gov is the U.S. government's official web portal to all federal, state and local government web resources and services.